www.pogodaiklimat.ru

Погода и климат >> Архив погоды >> Оман >> Умзамайм


ПОГОДА в Умзамайме

  • Прогноз погоды в Умзамайме
  • Монитор погоды в Умзамайме

АРХИВ ПОГОДЫ в Умзамайме

Время (UTC), дата Ветер
(напр.,м/с)
 
Видим.   Явления Облачность Т
(С)
Тd
(С)
f
(%)
Тe
(С)
Тes
(С)
Комфортность P
(гПа)
Po
(гПа)
Тmin
(С)
Tmax
(С)
R
(мм)
R24
(мм)
S
(см)
15 12.01 Ю 2 н/о н/о +23.7 +9.5 41 +25 +25 комфорт 1016.3 1001.6
18 12.01 З 3 н/о н/о +18.9 +9.8 55 +20 +20 1018.3 1003.4 +28.0
21 12.01 З 3 н/о н/о +17.2 +8.8 58 +17 +17 1018.1 1003.1
00 13.01 З 3 н/о н/о +14.3 +5.3 55 +13 +13 1017.5 1002.4
03 13.01 СЗ 4 н/о н/о +13.1 +8.0 71 +12 +12 1019.3 1004.1
06 13.01 СЗ 5 н/о н/о +20.9 +11.6 55 +23 +23 комфорт 1020.5 1005.7 +12.9
09 13.01 СВ 3 н/о н/о +25.4 +13.7 48 +28 +28 жарко 1017.8 1003.2
12 13.01 В 2 н/о н/о +26.7 +12.5 41 +28 +28 жарко 1015.9 1001.4
15 13.01 ЮВ 3 н/о н/о +25.2 +12.3 45 +27 +27 жарко 1017.4 1002.8
18 13.01 ЮВ 4 н/о н/о +21.0 +17.0 78 +25 +25 комфорт 1018.7 1004.0 +27.1
21 13.01 В 4 н/о н/о +18.6 +16.7 89 +20 +20 1018.2 1003.3
00 14.01 В 3 н/о н/о +16.8 +16.0 95 +17 +17 1017.5 1002.6
03 14.01 СВ 4 н/о н/о +16.0 +15.1 94 +15 +15 1018.8 1003.8
06 14.01 В 5 н/о н/о +23.2 +17.3 69 +28 +28 душно 1020.6 1005.9 +15.9
09 14.01 В 7 н/о н/о +27.1 +14.9 47 +30 +30 душно 1017.1 1002.6
12 14.01 В 6 н/о н/о +28.5 +11.8 36 +30 +30 жарко 1015.5 1001.1
15 14.01 В 7 н/о н/о +24.5 +15.0 55 +27 +27 жарко 1017.3 1002.7
18 14.01 ЮВ 3 н/о н/о +20.5 +15.4 73 +24 +24 комфорт 1019.1 1004.3 +28.5
21 14.01 В 3 н/о н/о +17.9 +15.9 88 +18 +18 1018.5 1003.5
00 15.01 ЮВ 3 н/о н/о +17.4 +16.4 94 +18 +18 1018.1 1003.2
03 15.01 СВ 4 н/о н/о +16.7 +16.7 100 +16 +16 1019.3 1004.3
06 15.01 В 6 н/о н/о +23.4 +17.6 70 +29 +29 душно 1020.7 1006.0 +16.4
09 15.01 В 6 н/о н/о +26.7 +15.6 51 +30 +30 душно 1017.5 1003.0
12 15.01 В 5 н/о н/о +28.2 +13.1 39 +30 +30 жарко 1015.5 1001.1
15 15.01 В 5 н/о н/о +24.4 +12.9 49 +26 +26 жарко 1017.1 1002.5
18 15.01 ЮВ 4 н/о н/о +20.0 +14.7 72 +22 +22 комфорт 1018.7 1003.9 +28.4
21 15.01 ЮВ 3 н/о н/о +17.5 +15.1 86 +18 +18 1017.8 1002.8
00 16.01 ЮВ 2 н/о н/о +15.6 +14.1 91 +16 +16 1017.4 1002.3
03 16.01 С 2 н/о н/о +14.2 +13.5 96 +14 +14 1018.4 1003.2
06 16.01 ЮВ 3 н/о н/о +22.2 +17.3 74 +27 +27 душно 1019.3 1004.6 +14.2
09 16.01 В 3 н/о н/о +26.1 +16.0 54 +29 +29 жарко 1016.4 1001.9
12 16.01 В 4 н/о н/о +28.2 +14.6 43 +30 +30 жарко 1014.1 999.7
15 16.01 ЮВ 4 н/о н/о +24.9 +14.5 52 +27 +27 жарко 1015.1 1000.6
18 16.01 ЮВ 3 н/о н/о +20.2 +16.1 77 +23 +23 комфорт 1016.9 1002.1 +28.4
21 16.01 Ю 3 н/о н/о +18.0 +15.7 86 +18 +18 1015.8 1000.9
00 17.01 Ю 3 н/о н/о +16.1 +14.9 93 +16 +16 1015.2 1000.2
03 17.01 Ю 3 н/о н/о +14.0 +14.0 100 +13 +13 1016.4 1001.3
06 17.01 Ю 6 н/о н/о +22.7 +16.6 68 +27 +27 душно 1017.3 1002.6 +13.6
09 17.01 ЮВ 4 н/о н/о +27.4 +12.8 40 +29 +29 жарко 1014.2 999.8
12 17.01 ЮВ 3 н/о н/о +29.5 +11.3 32 +30 +30 жарко 1012.0 997.7
15 17.01 В 7 н/о н/о +25.6 +13.0 46 +28 +28 жарко 1013.5 999.0
18 17.01 ЮВ 5 н/о н/о +21.6 +17.9 79 +26 +26 душно 1015.6 1000.9 +29.7
21 17.01 Ю 2 н/о н/о +19.4 +17.7 90 +22 +22 комфорт 1015.4 1000.5
00 18.01 Ю 2 н/о н/о +17.7 +17.2 97 +18 +18 1014.8 999.9
03 18.01 Ю 2 н/о н/о +15.7 +15.7 100 +16 +16 1016.0 1001.0
06 18.01 Ю 3 н/о н/о +23.3 +18.2 73 +29 +29 душно 1017.6 1003.0 +15.3
09 18.01 н/о н/о +27.2 +15.8 50 1015.2 1000.7
12 18.01 З 3 н/о н/о +28.9 +15.2 43 +31 +31 жарко 1013.0 998.7
15 18.01 З 5 н/о н/о +25.9 +14.9 51 +29 +29 душно 1014.6 1000.1
18 18.01 СЗ 4 н/о н/о +22.4 +13.8 58 +26 +26 жарко 1016.0 1001.3 +28.9
21 18.01 ЮЗ 1 н/о н/о +21.9 +11.2 51 +24 +24 комфорт 1016.0 1001.3
00 19.01 З 4 н/о н/о +17.7 +9.4 58 +18 +18 1015.9 1000.9
03 19.01 З 4 н/о н/о +15.2 +9.3 68 +14 +14 1017.1 1002.0
06 19.01 СЗ 6 н/о н/о +20.2 +9.7 51 +21 +21 комфорт 1018.8 1003.9 +14.7
09 19.01 З 7 н/о н/о +26.1 +10.1 37 +27 +27 жарко 1016.0 1001.5
12 19.01 З 7 н/о н/о +26.8 +11.8 39 +28 +28 жарко 1014.2 999.8

 

Местоположение метеостанции Умзамайм (Оман): широта 20.80 долгота 57.12 высота над уровнем моря 126 м.

В архиве по умолчанию представлена погода в Умзамайме за последнюю неделю. Архивные данные за месяц целиком и за предыдущие месяцы, начиная с января 2011 года, Вы можете получить, выбрав интересующий диапазон дат из раскрывающегося списка и нажав кнопку "Ввод!".


*Определитесь, кто Вы:
робот инопланетянин человек

Внимание! Время в таблицах - всемирное. Для получения местного времени необходимо прибавить поправку, которая равна 4 ч.

Смотрите также архив погоды в соседних городах и на ближайших метеорологических станциях:

Погода в Карн Аль Алам (Оман) (64 км)
Погода в Ялони (Оман) (96 км)
Погода на Джобе (Оман) (118 км)
Погода в Эль-Дакуме (Оман) (142 км)
Погода в Адаме (Оман) (181 км)
Погода в Фахуде (Оман) (183 км)
Погода на Масире (Оман) (186 км)
Погода в Аль Мудайби (Оман) (217 км)
Погода в Назве (Оман) (232 км)
Погода в Бахле (Оман) (243 км)

Пояснения к столбцам:

Ветер - указаны скорость ветра в м/с - средняя за 10 мин, порывы в срок и между сроками (в фигурных скобках) и направление, откуда дует ветер: С - северный, СВ - северо-восточный, В - восточный, ЮВ - юго-восточный, Ю - южный, ЮЗ - юго-западный, З - западный, СЗ - северо-западный.
Видимость - горизонтальная дальность видимости в метрах или километрах. При видимости от 1 до 10 км при отсутствии осадков обычно наблюдается дымка, при ухудшении видимости до 1 км и менее - туман. В сухую погоду видимость может ухудшаться дымом, пылью или мглою.
Явления - указаны атмосферные явления, наблюдавшиеся в срок или в последний час перед сроком; фигурными скобками обозначены явления, наблюдавшиеся между сроками (за 1-3 часа до срока); квадратными скобками обозначены град или гололедные отложения с указанием их диаметра в мм.
Облачность - указаны через наклонную черту общая и нижняя облачность в баллах и высота нижней границы облаков в метрах; квадратными скобками обозначены формы облаков: Ci - перистые, Cs - перисто-слоистые, Cc - перисто-кучевые, Ac - высококучевые, As - высокослоистые, Sc - слоисто-кучевые, Ns - слоисто-дождевые, Cu - кучевые, Cb - кучево-дождевые. Подробнее классификацию облаков см. в Атласе облаков (PDF).
T - Температура воздуха - температура, измеренная на высоте 2 м над землей.
Td - Температура точки росы - температура, при понижении до которой содержащийся в воздухе водяной пар достигнет насыщения.
f - Относительная влажность воздуха - влажноcть воздуха, измеренная на высоте 2 м над землей.
Te - Эффективная температура - температура, которую ощущает одетый по сезону человек в тени. Характеристика душности погоды. При расчете учитывается влияние влажности воздуха и скорости ветра на теплоощущения человека.
Tes - Эффективная температура на солнце - температура, которую ощущает человек, с поправкой на солнечный нагрев. Характеристика знойности погоды. Зависит от высоты солнца над горизонтом, облачности и скорости ветра. Ночью, в пасмурную погоду, а также при ветре 12 м/с и более поправка равна нулю.
P - Атмосферное давление - приведенное к уровню моря атмосферное давление.
Po - Атмосферное давление - измеренное на уровне метеостанции атмосферное давление.
Tmin - Минимальная температура - минимум температуры воздуха на высоте 2 м над землей.
Tmax - Максимальная температура - максимум температуры воздуха на высоте 2 м над землей.
R - Количество осадков - Количество выпавших осадков за период времени, мм. При наведении курсора мыши на число - период времени, за который выпало указанное количество осадков.
R24 - Количество осадков - Количество выпавших осадков за 24 часа, мм.
S - Снежный покров - Высота снежного покрова, см. При наведении курсора мыши на число - состояние снежного покрова и степень покрытия местности в баллах.